AFR51PD LFMN-LFPG

Flight info

Callsign AFR51PD
Flight time N/A
Altitude 31000
Route OKTET DCT LOGNI DCT MOKIP DCT ARFOZ DCT TINIL
Aircraft A320/M-SDE2E3FGIJ1RWY/HB1

Departure

Time 2026-05-06 14:31
Airport Nice-Côte d'Azur Airport (LFMN)

Arrival

Time N/A
Airport Charles de Gaulle International Airport (LFPG)
Time Latitude Longitude Altitude Speed Heading
2026-05-06 14:00 43.65993 7.20710 21 ft 0 kts 260°
2026-05-06 14:20 43.65994 7.20718 21 ft 4 kts 259°
2026-05-06 14:21 43.65999 7.20755 21 ft 4 kts 259°
2026-05-06 14:21 43.66006 7.20789 24 ft 4 kts 237°
2026-05-06 14:21 43.66024 7.20811 25 ft 4 kts 185°
2026-05-06 14:21 43.66033 7.20811 23 ft 0 kts 171°
2026-05-06 14:24 43.66020 7.20814 21 ft 7 kts 171°
2026-05-06 14:24 43.65958 7.20827 21 ft 10 kts 171°
2026-05-06 14:24 43.65879 7.20845 23 ft 13 kts 171°
2026-05-06 14:25 43.65797 7.20891 21 ft 14 kts 114°
2026-05-06 14:25 43.65843 7.20993 21 ft 13 kts 43°
2026-05-06 14:25 43.65902 7.21075 21 ft 12 kts 46°
2026-05-06 14:25 43.65956 7.21150 21 ft 11 kts 45°
2026-05-06 14:26 43.66023 7.21242 21 ft 17 kts 45°
2026-05-06 14:26 43.66116 7.21368 22 ft 19 kts 44°
2026-05-06 14:26 43.66207 7.21494 21 ft 18 kts 45°
2026-05-06 14:26 43.66293 7.21611 21 ft 17 kts 45°
2026-05-06 14:27 43.66372 7.21721 21 ft 16 kts 45°
2026-05-06 14:27 43.66447 7.21824 22 ft 15 kts 45°
2026-05-06 14:27 43.66516 7.21919 21 ft 14 kts 45°
2026-05-06 14:27 43.66580 7.22007 21 ft 13 kts 45°
2026-05-06 14:28 43.66647 7.22099 21 ft 14 kts 45°
2026-05-06 14:28 43.66716 7.22194 21 ft 14 kts 45°
2026-05-06 14:28 43.66781 7.22283 21 ft 12 kts 45°
2026-05-06 14:28 43.66819 7.22376 21 ft 11 kts 99°
2026-05-06 14:29 43.66766 7.22462 20 ft 15 kts 135°
2026-05-06 14:29 43.66687 7.22569 21 ft 17 kts 135°
2026-05-06 14:29 43.66608 7.22673 21 ft 12 kts 137°
2026-05-06 14:29 43.66547 7.22761 22 ft 13 kts 137°
2026-05-06 14:30 43.66488 7.22743 22 ft 0 kts 224°
2026-05-06 14:30 43.66467 7.22715 22 ft 26 kts 224°
2026-05-06 14:30 43.66152 7.22283 25 ft 98 kts 225°
2026-05-06 14:30 43.65531 7.21437 157 ft 140 kts 223°
2026-05-06 14:31 43.64839 7.20513 923 ft 139 kts 223°
2026-05-06 14:31 43.64145 7.19570 1686 ft 140 kts 225°
2026-05-06 14:31 43.63459 7.18606 2422 ft 142 kts 227°
2026-05-06 14:31 43.62765 7.17630 3118 ft 143 kts 227°
2026-05-06 14:32 43.62020 7.16604 3591 ft 163 kts 227°
2026-05-06 14:32 43.61124 7.15489 4001 ft 186 kts 213°
2026-05-06 14:32 43.59763 7.15182 4349 ft 223 kts 174°
2026-05-06 14:32 43.58224 7.15999 4748 ft 252 kts 159°
2026-05-06 14:33 43.56713 7.17472 5288 ft 280 kts 136°
2026-05-06 14:33 43.55570 7.19707 6178 ft 292 kts 119°
2026-05-06 14:33 43.54825 7.22351 7072 ft 301 kts 106°
2026-05-06 14:33 43.54308 7.25144 8115 ft 301 kts 108°
2026-05-06 14:34 43.53829 7.27955 9137 ft 304 kts 100°
2026-05-06 14:34 43.53770 7.30917 9669 ft 313 kts 85°
2026-05-06 14:34 43.54287 7.33829 9832 ft 317 kts 70°
2026-05-06 14:34 43.55096 7.36805 9867 ft 340 kts 70°
2026-05-06 14:35 43.55935 7.39902 9858 ft 348 kts 70°
2026-05-06 14:35 43.56809 7.43012 9856 ft 349 kts 64°
2026-05-06 14:35 43.58176 7.45749 9863 ft 347 kts 44°
2026-05-06 14:35 43.60098 7.47698 9863 ft 340 kts 24°
2026-05-06 14:36 43.62324 7.48633 9862 ft 332 kts
2026-05-06 14:36 43.64602 7.48524 9863 ft 326 kts 343°
2026-05-06 14:36 43.66686 7.47433 9862 ft 318 kts 325°
2026-05-06 14:36 43.68380 7.45541 9863 ft 313 kts 309°
2026-05-06 14:37 43.69601 7.43086 9843 ft 310 kts 297°
2026-05-06 14:37 43.70691 7.40508 9844 ft 311 kts 297°
2026-05-06 14:37 43.71784 7.37930 9839 ft 311 kts 298°
2026-05-06 14:37 43.72878 7.35350 9835 ft 311 kts 297°
2026-05-06 14:38 43.73971 7.32764 9840 ft 311 kts 298°
2026-05-06 14:38 43.75063 7.30184 9838 ft 311 kts 298°
2026-05-06 14:38 43.76168 7.27603 9836 ft 312 kts 300°
2026-05-06 14:38 43.77532 7.25253 9839 ft 316 kts 312°
2026-05-06 14:39 43.79285 7.23317 10382 ft 327 kts 322°
2026-05-06 14:39 43.81152 7.21538 11427 ft 327 kts 322°
2026-05-06 14:39 43.83020 7.19718 12329 ft 330 kts 321°
2026-05-06 14:39 43.84907 7.17865 13208 ft 334 kts 320°
2026-05-06 14:40 43.86817 7.15990 14006 ft 340 kts 320°
2026-05-06 14:40 43.88761 7.14088 14756 ft 344 kts 320°
2026-05-06 14:40 43.90727 7.12169 15534 ft 348 kts 320°
2026-05-06 14:40 43.92689 7.10254 16257 ft 351 kts 319°
2026-05-06 14:41 43.94696 7.08296 17028 ft 355 kts 319°
2026-05-06 14:41 43.96725 7.06314 17797 ft 359 kts 318°
2026-05-06 14:41 43.98776 7.04312 18462 ft 362 kts 318°
2026-05-06 14:41 44.00850 7.02286 19095 ft 366 kts 317°
2026-05-06 14:42 44.02943 7.00236 19743 ft 369 kts 317°
2026-05-06 14:42 44.05060 6.98162 20354 ft 374 kts 317°
2026-05-06 14:42 44.07197 6.96066 20941 ft 378 kts 316°
2026-05-06 14:42 44.09360 6.93943 21516 ft 382 kts 316°
2026-05-06 14:43 44.11546 6.91797 22075 ft 387 kts 316°
2026-05-06 14:43 44.13759 6.89617 22670 ft 392 kts 315°
2026-05-06 14:43 44.16004 6.87424 23271 ft 397 kts 316°
2026-05-06 14:43 44.18307 6.85242 23819 ft 403 kts 316°
2026-05-06 14:44 44.20651 6.83069 24439 ft 406 kts 316°
2026-05-06 14:44 44.23017 6.80896 24967 ft 408 kts 317°
2026-05-06 14:44 44.25394 6.78706 25474 ft 411 kts 317°
2026-05-06 14:45 44.30188 6.74235 26434 ft 418 kts 316°
2026-05-06 14:45 44.32605 6.71960 26868 ft 421 kts 316°
2026-05-06 14:45 44.35040 6.69663 27340 ft 424 kts 316°
2026-05-06 14:45 44.37493 6.67347 27756 ft 427 kts 316°
2026-05-06 14:46 44.39967 6.65011 28171 ft 431 kts 316°
2026-05-06 14:46 44.42455 6.62660 28661 ft 434 kts 317°
2026-05-06 14:46 44.44966 6.60286 29081 ft 437 kts 317°
2026-05-06 14:46 44.47495 6.57893 29442 ft 441 kts 317°
2026-05-06 14:47 44.50066 6.55520 29833 ft 446 kts 319°
2026-05-06 14:47 44.52733 6.53248 30178 ft 451 kts 321°
2026-05-06 14:47 44.55467 6.51053 30514 ft 455 kts 322°
2026-05-06 14:47 44.58241 6.48891 30810 ft 458 kts 322°
2026-05-06 14:48 44.61022 6.46731 30902 ft 454 kts 322°
2026-05-06 14:48 44.63728 6.44612 30916 ft 436 kts 322°
2026-05-06 14:48 44.66320 6.42552 30916 ft 423 kts 321°
2026-05-06 14:49 44.71354 6.38438 30920 ft 416 kts 320°
2026-05-06 14:49 44.76335 6.34301 30921 ft 416 kts 321°
2026-05-06 14:50 44.81319 6.30181 30919 ft 416 kts 321°
2026-05-06 14:50 44.86321 6.26063 30912 ft 416 kts 321°
2026-05-06 14:51 44.91296 6.21984 30926 ft 417 kts 321°
2026-05-06 14:51 44.96302 6.17869 30919 ft 416 kts 321°
2026-05-06 14:52 45.01287 6.13753 30922 ft 415 kts 321°
2026-05-06 14:52 45.06263 6.09628 30959 ft 415 kts 321°
2026-05-06 14:53 45.11235 6.05500 30941 ft 414 kts 321°
2026-05-06 14:53 45.16196 6.01372 30924 ft 413 kts 321°
2026-05-06 14:54 45.21150 5.97242 30923 ft 414 kts 321°
2026-05-06 14:54 45.26111 5.93094 30932 ft 414 kts 322°
2026-05-06 14:55 45.31069 5.88954 30924 ft 413 kts 322°
2026-05-06 14:55 45.36026 5.84800 30919 ft 413 kts 322°
2026-05-06 14:56 45.40981 5.80631 30960 ft 413 kts 323°
2026-05-06 14:56 45.45907 5.76481 30970 ft 411 kts 323°
2026-05-06 14:57 45.50831 5.72329 30956 ft 411 kts 323°
2026-05-06 14:57 45.55749 5.68168 30947 ft 410 kts 323°
2026-05-06 14:58 45.60656 5.64005 30941 ft 410 kts 323°
2026-05-06 14:58 45.65559 5.59841 30918 ft 410 kts 324°
2026-05-06 14:59 45.70468 5.55668 30907 ft 410 kts 324°
2026-05-06 14:59 45.75373 5.51489 30912 ft 411 kts 324°
2026-05-06 15:00 45.80285 5.47305 30928 ft 410 kts 324°
2026-05-06 15:00 45.85181 5.43119 30939 ft 409 kts 325°
2026-05-06 15:01 45.90068 5.38919 30929 ft 409 kts 325°
2026-05-06 15:01 45.94948 5.34720 30923 ft 409 kts 325°
2026-05-06 15:02 45.99829 5.30512 30919 ft 409 kts 325°
2026-05-06 15:02 46.04709 5.26302 30919 ft 409 kts 325°
2026-05-06 15:03 46.09587 5.22079 30912 ft 409 kts 325°
2026-05-06 15:03 46.14469 5.17845 30910 ft 410 kts 325°
2026-05-06 15:04 46.19347 5.13610 30930 ft 409 kts 326°
2026-05-06 15:04 46.24510 5.10135 30917 ft 414 kts 342°
2026-05-06 15:04 46.27350 5.09390 30921 ft 416 kts 353°
2026-05-06 15:05 46.30246 5.09301 30925 ft 416 kts 359°
2026-05-06 15:05 46.36030 5.09343 30926 ft 415 kts 358°
2026-05-06 15:06 46.41809 5.09355 30917 ft 415 kts 358°
2026-05-06 15:06 46.47578 5.09365 30917 ft 414 kts 359°
2026-05-06 15:07 46.53327 5.09382 30926 ft 413 kts 359°
2026-05-06 15:07 46.58094 5.09406 30924 ft 412 kts 359°
2026-05-06 15:08 46.63821 5.09435 30912 ft 411 kts 359°
2026-05-06 15:08 46.69545 5.09460 30909 ft 411 kts 359°
2026-05-06 15:09 46.75256 5.09482 30904 ft 410 kts 359°
2026-05-06 15:09 46.80965 5.09505 30899 ft 410 kts 359°
2026-05-06 15:10 46.86672 5.09539 30897 ft 410 kts
2026-05-06 15:10 46.92372 5.09569 30910 ft 409 kts
2026-05-06 15:11 46.98060 5.09593 30906 ft 408 kts
2026-05-06 15:11 47.03741 5.09605 30903 ft 408 kts
2026-05-06 15:12 47.09413 5.09628 30906 ft 407 kts
2026-05-06 15:12 47.15067 5.09654 30899 ft 406 kts
2026-05-06 15:13 47.20707 5.09680 30898 ft 405 kts
2026-05-06 15:13 47.26333 5.09715 30895 ft 404 kts
2026-05-06 15:14 47.31921 5.09750 30884 ft 404 kts
2026-05-06 15:14 47.37589 5.09777 30884 ft 405 kts
2026-05-06 15:15 47.43225 5.09783 30880 ft 405 kts
2026-05-06 15:15 47.48818 5.09793 30873 ft 404 kts
2026-05-06 15:16 47.54452 5.09752 30870 ft 406 kts 356°
2026-05-06 15:16 47.57239 5.09055 30871 ft 407 kts 345°
2026-05-06 15:16 47.59901 5.07611 30872 ft 409 kts 334°
2026-05-06 15:17 47.64551 5.02795 30877 ft 410 kts 320°
2026-05-06 15:17 47.68900 4.97326 30880 ft 410 kts 320°
2026-05-06 15:18 47.73254 4.91846 30877 ft 410 kts 320°
2026-05-06 15:18 47.77599 4.86374 30880 ft 409 kts 320°
2026-05-06 15:19 47.81939 4.80879 30886 ft 410 kts 319°
2026-05-06 15:19 47.86252 4.75412 30701 ft 412 kts 320°
2026-05-06 15:19 47.88425 4.72659 30403 ft 408 kts 320°
2026-05-06 15:20 47.90581 4.69924 29901 ft 406 kts 320°
2026-05-06 15:20 47.92724 4.67199 29366 ft 403 kts 319°
2026-05-06 15:20 47.94844 4.64496 28900 ft 399 kts 319°
2026-05-06 15:20 47.96941 4.61822 28426 ft 395 kts 319°
2026-05-06 15:21 47.99023 4.59163 27970 ft 392 kts 319°
2026-05-06 15:21 48.01086 4.56524 27519 ft 389 kts 319°
2026-05-06 15:21 48.03137 4.53898 27068 ft 386 kts 319°
2026-05-06 15:21 48.05169 4.51297 26619 ft 383 kts 319°
2026-05-06 15:22 48.07184 4.48716 26161 ft 381 kts 320°
2026-05-06 15:22 48.09188 4.46148 25715 ft 379 kts 320°
2026-05-06 15:22 48.11186 4.43582 25244 ft 377 kts 320°
2026-05-06 15:22 48.13167 4.41032 24767 ft 375 kts 320°
2026-05-06 15:23 48.15137 4.38487 24283 ft 373 kts 319°
2026-05-06 15:23 48.17093 4.35936 23809 ft 372 kts 320°
2026-05-06 15:23 48.19034 4.33389 23294 ft 371 kts 320°
2026-05-06 15:23 48.20966 4.30840 22774 ft 368 kts 319°
2026-05-06 15:24 48.22881 4.28308 22294 ft 365 kts 319°
2026-05-06 15:24 48.24779 4.25807 21806 ft 362 kts 319°
2026-05-06 15:24 48.26595 4.23213 21350 ft 359 kts 311°
2026-05-06 15:24 48.28187 4.20346 20888 ft 356 kts 309°
2026-05-06 15:25 48.29761 4.17481 20425 ft 354 kts 309°
2026-05-06 15:25 48.31320 4.14642 19971 ft 351 kts 309°
2026-05-06 15:25 48.32867 4.11822 19519 ft 349 kts 309°
2026-05-06 15:25 48.34407 4.09014 19070 ft 347 kts 309°
2026-05-06 15:26 48.35936 4.06220 18623 ft 345 kts 309°
2026-05-06 15:26 48.37456 4.03445 18183 ft 343 kts 308°
2026-05-06 15:26 48.38966 4.00683 17699 ft 341 kts 309°
2026-05-06 15:26 48.40466 3.97937 17263 ft 338 kts 309°
2026-05-06 15:27 48.41950 3.95214 16839 ft 335 kts 309°
2026-05-06 15:27 48.43421 3.92510 16422 ft 333 kts 309°
2026-05-06 15:27 48.44882 3.89821 16006 ft 330 kts 308°
2026-05-06 15:27 48.46314 3.87178 15595 ft 331 kts 309°
2026-05-06 15:28 48.47787 3.84465 15177 ft 329 kts 309°
2026-05-06 15:28 48.49231 3.81807 14769 ft 327 kts 309°
2026-05-06 15:28 48.50645 3.79204 14367 ft 325 kts 309°
2026-05-06 15:28 48.52073 3.76572 13966 ft 323 kts 309°
2026-05-06 15:29 48.53486 3.73956 13539 ft 321 kts 309°
2026-05-06 15:29 48.54755 3.71198 13117 ft 318 kts 303°
2026-05-06 15:29 48.55953 3.68403 12703 ft 315 kts 303°
2026-05-06 15:29 48.57140 3.65643 12291 ft 312 kts 303°
2026-05-06 15:30 48.58316 3.62908 11887 ft 309 kts 303°
2026-05-06 15:30 48.59480 3.60204 11475 ft 306 kts 303°
2026-05-06 15:30 48.60694 3.57572 11057 ft 304 kts 310°
2026-05-06 15:30 48.62253 3.55439 10752 ft 300 kts 324°
2026-05-06 15:31 48.64012 3.53869 10587 ft 289 kts 329°
2026-05-06 15:31 48.65747 3.52365 10284 ft 285 kts 328°
2026-05-06 15:31 48.67455 3.50880 10031 ft 282 kts 329°
2026-05-06 15:32 48.70827 3.47940 9546 ft 278 kts 329°
2026-05-06 15:32 48.72501 3.46480 9313 ft 277 kts 329°
2026-05-06 15:32 48.74166 3.45023 9080 ft 275 kts 329°
2026-05-06 15:32 48.75825 3.43573 8856 ft 275 kts 329°
2026-05-06 15:33 48.77481 3.42125 8627 ft 274 kts 329°
2026-05-06 15:33 48.79124 3.40689 8400 ft 272 kts 329°
2026-05-06 15:33 48.80781 3.39238 8173 ft 271 kts 329°
2026-05-06 15:33 48.82403 3.37817 7939 ft 268 kts 329°
2026-05-06 15:34 48.83997 3.36419 7727 ft 269 kts 329°
2026-05-06 15:34 48.85614 3.35002 7503 ft 267 kts 330°
2026-05-06 15:34 48.87225 3.33588 7279 ft 268 kts 330°
2026-05-06 15:34 48.88833 3.32177 7061 ft 267 kts 330°
2026-05-06 15:35 48.90433 3.30776 6837 ft 265 kts 330°
2026-05-06 15:35 48.92028 3.29376 6615 ft 263 kts 330°
2026-05-06 15:35 48.93584 3.27916 6402 ft 262 kts 323°
2026-05-06 15:35 48.94483 3.26643 6247 ft 263 kts 312°